GW0547 Weather Reports


time (UTC)temp
C
wind
direction
speed
KPH
gust
KPH
rain 1hr
cm
rain 24hr
cm
rain mn
cm
humidity
%
barometer
mb
20260510083042 7 186 3.2 6.4 0.00 0.58 0.25 94 1009.0
20260510082525 7 164 0.0 3.2 0.00 0.58 0.25 94 1009.1
20260510082025 7 164 0.0 6.4 0.00 0.58 0.25 94 1009.1
20260510081601 7 0 0.0 6.4 0.00 0.58 0.25 94 1008.9
20260510081025 7 163 1.6 8.0 0.00 0.58 0.25 94 1009.1
20260510080525 8 163 1.6 8.0 0.00 0.58 0.25 94 1009.1
20260510080040 8 198 3.2 9.7 0.00 0.58 0.25 94 1009.2
20260510075526 8 190 3.2 12.9 0.00 0.58 0.25 94 1009.1
20260510075026 8 194 6.4 12.9 0.00 0.58 0.25 94 1009.1
20260510074544 8 183 8.0 12.9 0.00 0.58 0.25 94 1009.1
20260510074026 7 192 8.0 12.9 0.00 0.58 0.25 94 1008.9
20260510073525 7 163 6.4 12.9 0.00 0.58 0.25 94 1008.9
20260510073047 7 186 6.4 12.9 0.00 0.58 0.25 94 1008.8
20260510072526 7 175 4.8 12.9 0.00 0.58 0.25 93 1008.7
20260510072026 7 180 6.4 11.3 0.00 0.58 0.25 94 1008.7
20260510071546 7 190 4.8 8.0 0.00 0.58 0.25 94 1008.8
20260510071025 7 190 4.8 14.5 0.00 0.58 0.25 93 1008.7
20260510070525 8 181 8.0 14.5 0.00 0.58 0.25 93 1008.5
20260510070044 8 196 6.4 14.5 0.00 0.58 0.25 93 1008.6
20260510065525 8 166 8.0 14.5 0.00 0.58 0.25 94 1008.7
20260510065028 8 190 8.0 14.5 0.00 0.58 0.25 94 1008.8
20260510064542 8 190 6.4 9.7 0.00 0.58 0.25 93 1008.9
20260510064025 8 157 6.4 8.0 0.00 0.58 0.25 93 1008.8
20260510063525 8 155 3.2 8.0 0.00 0.58 0.25 93 1008.8
20260510063040 8 161 3.2 11.3 0.00 0.58 0.25 93 1009.0
20260510062525 8 173 3.2 14.5 0.00 0.58 0.25 93 1008.9
20260510062025 8 182 6.4 14.5 0.00 0.58 0.25 93 1008.9
20260510061545 8 194 6.4 11.3 0.03 0.58 0.25 93 1009.0
20260510061024 8 194 4.8 8.0 0.03 0.58 0.25 93 1008.9
20260510060524 8 194 4.8 6.4 0.03 0.58 0.25 93 1009.1
20260510060044 8 178 3.2 6.4 0.03 0.58 0.25 92 1009.1
20260510055521 8 178 1.6 8.0 0.08 0.58 0.25 92 1009.0
20260510055023 8 178 3.2 12.9 0.10 0.58 0.25 92 1009.2
20260510054543 8 185 4.8 14.5 0.13 0.58 0.25 92 1009.2
20260510054025 8 198 8.0 14.5 0.15 0.58 0.25 93 1009.1
20260510053523 8 192 4.8 14.5 0.18 0.58 0.25 92 1009.2
20260510053053 8 199 8.0 14.5 0.18 0.58 0.25 93 1009.3
20260510052524 8 197 8.0 14.5 0.18 0.58 0.25 93 1009.2
20260510052024 8 201 8.0 14.5 0.18 0.58 0.25 93 1009.2
20260510051543 8 187 6.4 12.9 0.15 0.56 0.23 92 1008.9
20260510051023 9 136 6.4 16.1 0.15 0.56 0.23 92 1008.7
20260510050522 9 146 9.7 16.1 0.15 0.56 0.23 92 1009.1
20260510050041 9 142 9.7 16.1 0.20 0.56 0.23 91 1009.1
20260510045524 9 188 4.8 12.9 0.18 0.51 0.18 91 1009.8
20260510045024 9 214 3.2 14.5 0.15 0.48 0.15 92 1009.9
20260510044536 9 253 4.8 14.5 0.13 0.46 0.13 92 1009.9
20260510044023 9 257 0.0 11.3 0.10 0.43 0.10 92 1010.0
20260510043523 9 252 3.2 8.0 0.08 0.41 0.08 91 1009.9
20260510043040 9 218 3.2 8.0 0.08 0.41 0.08 91 1009.6
20260510042525 9 310 0.0 12.9 0.08 0.41 0.08 91 1009.6
20260510042023 9 250 4.8 12.9 0.08 0.41 0.08 91 1009.5
20260510041540 10 263 3.2 16.1 0.08 0.41 0.08 91 1009.6
20260510041027 10 297 6.4 16.1 0.08 0.41 0.08 92 1009.5
20260510040522 10 263 8.0 16.1 0.05 0.38 0.05 92 1009.6
20260510040047 10 297 1.6 9.7 0.00 0.33 0.00 92 1009.5
20260510035523 10 209 3.2 9.7 0.00 0.33 0.33 92 1009.2
20260510035026 10 204 3.2 11.3 0.00 0.33 0.33 92 1009.1
20260510034538 10 187 4.8 11.3 0.00 0.33 0.33 92 1009.1
20260510034023 10 208 3.2 12.9 0.00 0.33 0.33 92 1008.9
20260510033526 10 190 6.4 12.9 0.00 0.33 0.33 92 1008.7
20260510033044 9 207 6.4 14.5 0.00 0.33 0.33 92 1008.6
20260510032523 9 184 8.0 16.1 0.00 0.33 0.33 92 1008.5
20260510032026 9 178 8.0 16.1 0.00 0.33 0.33 92 1008.4
20260510031542 9 173 8.0 14.5 0.00 0.33 0.33 92 1008.3
20260510031023 9 182 6.4 11.3 0.00 0.33 0.33 92 1008.4
20260510030523 10 173 6.4 12.9 0.00 0.33 0.33 91 1008.4
20260510030044 10 189 8.0 12.9 0.00 0.33 0.33 92 1008.4
20260510025523 10 189 6.4 16.1 0.00 0.33 0.33 91 1008.4
20260510025023 10 185 8.0 16.1 0.00 0.33 0.33 91 1008.3
20260510024542 10 175 8.0 16.1 0.00 0.33 0.33 91 1008.3
20260510024022 10 182 9.7 19.3 0.00 0.33 0.33 92 1008.3
20260510023523 10 171 9.7 19.3 0.00 0.33 0.33 91 1008.2
20260510023042 10 181 9.7 24.1 0.00 0.33 0.33 92 1008.2
20260510022524 10 196 12.9 24.1 0.00 0.33 0.33 92 1008.3
20260510022024 10 192 11.3 20.9 0.00 0.33 0.33 92 1008.0
20260510021537 10 184 12.9 20.9 0.00 0.33 0.33 92 1007.9
20260510021023 10 171 11.3 20.9 0.00 0.33 0.33 92 1007.8
20260510020521 10 190 12.9 22.5 0.00 0.33 0.33 92 1007.8
20260510020044 10 178 14.5 22.5 0.00 0.33 0.33 92 1007.8
20260510015521 10 188 12.9 22.5 0.00 0.33 0.33 91 1007.8
20260510015024 10 157 11.3 24.1 0.00 0.33 0.33 91 1007.7
20260510014545 10 175 11.3 24.1 0.00 0.33 0.33 91 1007.9
20260510014023 10 187 12.9 20.9 0.00 0.33 0.33 91 1007.9
20260510013521 10 173 12.9 20.9 0.00 0.33 0.33 91 1007.9
20260510013047 10 179 12.9 19.3 0.00 0.33 0.33 91 1007.9
20260510012523 10 181 12.9 19.3 0.00 0.33 0.33 91 1007.9
20260510012024 10 196 11.3 16.1 0.00 0.33 0.33 91 1007.8
20260510011538 10 183 9.7 16.1 0.00 0.33 0.33 91 1007.6
20260510011022 10 200 11.3 17.7 0.00 0.33 0.33 90 1007.6
20260510010523 10 186 9.7 17.7 0.00 0.33 0.33 90 1007.6
20260510010038 10 182 9.7 19.3 0.00 0.33 0.33 90 1007.5
20260510005521 10 178 12.9 22.5 0.00 0.33 0.33 90 1007.5
20260510005023 10 175 12.9 22.5 0.00 0.33 0.33 90 1007.6
20260510004536 10 187 11.3 17.7 0.00 0.33 0.33 91 1007.6
20260510004021 10 179 11.3 17.7 0.00 0.33 0.33 91 1007.7
20260510003523 10 192 9.7 14.5 0.00 0.33 0.33 91 1007.6
20260510003046 10 181 6.4 12.9 0.00 0.33 0.33 90 1007.5
20260510002522 10 185 8.0 14.5 0.00 0.33 0.33 90 1007.4
20260510002023 10 190 8.0 14.5 0.00 0.33 0.33 90 1007.3
20260510001540 10 180 9.7 19.3 0.00 0.33 0.33 90 1007.2
20260510001023 10 180 11.3 19.3 0.00 0.33 0.33 90 1007.2
20260510000524 10 178 9.7 17.7 0.00 0.33 0.33 90 1007.2
20260510000039 10 174 9.7 17.7 0.00 0.33 0.33 90 1007.2
20260509235524 10 200 9.7 17.7 0.00 0.33 0.33 90 1007.2
20260509235026 10 190 9.7 16.1 0.00 0.33 0.33 91 1007.2
20260509234545 10 175 8.0 16.1 0.00 0.33 0.33 89 1007.1
20260509234026 10 175 8.0 16.1 0.00 0.33 0.33 89 1006.9
20260509233525 10 177 9.7 16.1 0.00 0.33 0.33 89 1007.0
20260509233043 10 178 8.0 14.5 0.00 0.33 0.33 89 1007.2
20260509232525 10 202 8.0 17.7 0.00 0.33 0.33 89 1007.2
20260509232025 10 173 8.0 17.7 0.00 0.33 0.33 89 1007.1
20260509231555 10 173 9.7 19.3 0.00 0.33 0.33 88 1007.1
20260509231025 10 175 11.3 19.3 0.00 0.33 0.33 89 1007.2
20260509230523 10 196 11.3 19.3 0.00 0.33 0.33 88 1007.1
20260509230042 10 205 11.3 20.9 0.00 0.33 0.33 88 1007.2
20260509225525 11 211 11.3 20.9 0.00 0.33 0.33 88 1007.2
20260509225024 11 189 9.7 19.3 0.00 0.33 0.33 88 1007.3
20260509224539 11 211 8.0 17.7 0.00 0.33 0.33 88 1007.2
20260509224025 11 193 9.7 17.7 0.00 0.33 0.33 88 1007.2
20260509223527 10 180 9.7 17.7 0.00 0.33 0.33 89 1007.1
20260509223046 10 205 9.7 25.7 0.00 0.33 0.33 88 1007.1
20260509222525 10 193 9.7 25.7 0.00 0.33 0.33 88 1007.1
20260509222026 10 204 12.9 17.7 0.00 0.33 0.33 88 1006.9
20260509221544 10 182 9.7 24.1 0.00 0.33 0.33 89 1006.9
20260509221026 10 200 11.3 24.1 0.00 0.33 0.33 89 1006.9
20260509220525 10 174 11.3 16.1 0.00 0.33 0.33 89 1006.9
20260509220051 10 208 6.4 24.1 0.00 0.33 0.33 89 1007.1
20260509215523 10 196 9.7 24.1 0.00 0.33 0.33 89 1007.1
20260509215026 10 180 11.3 24.1 0.00 0.33 0.33 89 1007.1
20260509214544 10 201 12.9 22.5 0.00 0.33 0.33 89 1007.1
20260509214028 10 186 9.7 24.1 0.00 0.33 0.33 89 1007.1
20260509213525 10 198 12.9 24.1 0.00 0.33 0.33 89 1007.1
20260509213047 10 217 12.9 27.4 0.00 0.33 0.33 88 1007.1
20260509212525 10 223 12.9 27.4 0.00 0.33 0.33 88 1007.1
20260509212030 10 188 11.3 20.9 0.00 0.33 0.33 89 1007.2
20260509211546 10 196 12.9 19.3 0.00 0.33 0.33 89 1007.2
20260509211028 10 190 9.7 22.5 0.00 0.33 0.33 89 1007.2
20260509210525 10 171 12.9 22.5 0.00 0.33 0.33 88 1007.2
20260509210042 10 188 9.7 22.5 0.00 0.33 0.33 89 1007.4
20260509205525 10 192 12.9 25.7 0.00 0.33 0.33 88 1007.4
20260509205027 10 189 16.1 25.7 0.00 0.33 0.33 89 1007.4
20260509204538 10 224 8.0 20.9 0.00 0.33 0.33 89 1007.5
20260509204023 10 194 11.3 20.9 0.00 0.33 0.33 89 1007.5
20260509203523 10 200 12.9 20.9 0.00 0.33 0.33 89 1007.6
20260509203043 10 173 12.9 20.9 0.00 0.33 0.33 89 1007.6
20260509202522 10 204 9.7 19.3 0.00 0.33 0.33 89 1007.7
20260509202023 10 221 9.7 19.3 0.00 0.33 0.33 90 1007.8
20260509201546 10 184 9.7 16.1 0.00 0.33 0.33 90 1007.7
20260509201022 10 206 9.7 14.5 0.00 0.33 0.33 90 1007.8
20260509200523 10 205 8.0 20.9 0.00 0.33 0.33 90 1007.8
20260509200048 10 188 11.3 20.9 0.00 0.33 0.33 90 1007.7
20260509195529 10 202 9.7 17.7 0.00 0.33 0.33 90 1007.8
20260509195025 10 201 8.0 17.7 0.00 0.33 0.33 90 1007.8
20260509194540 10 214 8.0 16.1 0.00 0.33 0.33 90 1007.9
20260509194025 10 207 8.0 16.1 0.00 0.33 0.33 90 1008.0
20260509193525 10 232 9.7 16.1 0.00 0.33 0.33 91 1008.1
20260509193038 10 192 8.0 14.5 0.00 0.33 0.33 91 1008.0
20260509192524 10 188 8.0 17.7 0.00 0.33 0.33 90 1008.2
20260509192025 10 191 9.7 17.7 0.00 0.33 0.33 90 1008.2
20260509191546 10 184 8.0 16.1 0.00 0.33 0.33 90 1008.3
20260509191025 10 200 11.3 22.5 0.00 0.33 0.33 90 1008.4
20260509190523 10 186 9.7 22.5 0.00 0.33 0.33 91 1008.5
20260509190054 10 196 11.3 19.3 0.00 0.33 0.33 91 1008.5
20260509185522 10 214 11.3 19.3 0.00 0.33 0.33 91 1008.5
20260509185025 10 174 9.7 16.1 0.00 0.33 0.33 91 1008.5
20260509184558 10 194 8.0 14.5 0.00 0.33 0.33 91 1008.5
20260509184022 10 194 8.0 16.1 0.00 0.33 0.33 91 1008.5
20260509183525 10 173 8.0 19.3 0.00 0.33 0.33 91 1008.4
20260509183039 10 171 11.3 19.3 0.00 0.33 0.33 92 1008.5
20260509182524 10 229 12.9 19.3 0.00 0.33 0.33 92 1008.5
20260509182028 10 184 11.3 19.3 0.00 0.33 0.33 92 1008.5
20260509181548 10 180 11.3 19.3 0.00 0.33 0.33 92 1008.5
20260509181025 9 171 9.7 19.3 0.00 0.33 0.33 92 1008.5
20260509180525 9 198 9.7 16.1 0.00 0.33 0.33 92 1008.5
20260509180045 9 192 8.0 14.5 0.00 0.33 0.33 93 1008.5
20260509175522 9 202 9.7 17.7 0.00 0.33 0.33 93 1008.5
20260509175022 9 182 9.7 19.3 0.00 0.33 0.33 93 1008.5
20260509174548 9 218 9.7 19.3 0.00 0.33 0.33 93 1008.5
20260509174027 9 189 11.3 17.7 0.00 0.33 0.33 93 1008.4
20260509173526 9 194 9.7 17.7 0.00 0.33 0.33 93 1008.4
20260509173046 9 178 9.7 16.1 0.00 0.33 0.33 93 1008.4
20260509172521 9 160 8.0 14.5 0.00 0.33 0.33 93 1008.3
20260509172024 9 176 8.0 16.1 0.00 0.33 0.33 93 1008.4
20260509171538 9 186 9.7 16.1 0.00 0.33 0.33 93 1008.3
20260509171025 9 186 9.7 16.1 0.00 0.33 0.33 93 1008.4
20260509170525 9 157 9.7 16.1 0.00 0.33 0.33 93 1008.4
20260509170053 9 178 11.3 16.1 0.00 0.33 0.33 93 1008.5
20260509165525 9 168 9.7 17.7 0.00 0.33 0.33 93 1008.5
20260509165022 9 152 9.7 17.7 0.00 0.33 0.33 93 1008.6
20260509164543 8 171 11.3 19.3 0.03 0.33 0.33 93 1008.7
20260509164028 8 183 11.3 19.3 0.03 0.33 0.33 93 1008.7
20260509163523 8 160 12.9 20.9 0.03 0.33 0.33 93 1008.7
20260509163058 8 171 11.3 20.9 0.03 0.33 0.33 93 1008.7
20260509162525 8 170 11.3 19.3 0.03 0.33 0.33 93 1008.8
20260509162029 8 161 9.7 17.7 0.03 0.33 0.33 93 1008.9
20260509161542 8 170 9.7 19.3 0.03 0.33 0.33 93 1008.9
20260509161025 8 188 11.3 20.9 0.03 0.33 0.33 93 1009.1
20260509160525 8 193 11.3 20.9 0.03 0.33 0.33 93 1009.1
20260509160041 8 172 14.5 20.9 0.03 0.33 0.33 93 1009.1
20260509155524 8 185 12.9 24.1 0.03 0.36 0.33 94 1009.2
20260509155027 8 188 14.5 24.1 0.03 0.36 0.33 94 1009.2
20260509154543 8 188 9.7 19.3 0.00 0.33 0.30 94 1009.3
20260509154028 8 163 6.4 14.5 0.00 0.33 0.30 94 1009.3
20260509153526 8 162 6.4 17.7 0.03 0.33 0.30 94 1009.3
20260509153043 8 195 9.7 20.9 0.03 0.33 0.30 94 1009.4
20260509152523 8 188 11.3 20.9 0.03 0.33 0.30 94 1009.4
20260509152025 8 186 12.9 20.9 0.05 0.33 0.30 94 1009.5
20260509151542 8 227 9.7 22.5 0.05 0.33 0.30 94 1009.5
20260509151022 8 195 12.9 22.5 0.05 0.33 0.30 94 1009.6
20260509150524 8 189 11.3 22.5 0.08 0.33 0.30 94 1009.6
20260509150044 8 166 9.7 22.5 0.08 0.33 0.30 94 1009.6
20260509145526 8 175 14.5 22.5 0.10 0.41 0.30 94 1009.6
20260509145022 8 197 11.3 20.9 0.10 0.41 0.30 94 1009.6
20260509144540 8 163 11.3 20.9 0.10 0.41 0.30 94 1009.6
20260509144025 8 164 12.9 20.9 0.10 0.41 0.30 94 1009.6
20260509143524 8 167 9.7 16.1 0.10 0.38 0.28 94 1009.6
20260509143047 8 173 9.7 20.9 0.10 0.38 0.28 94 1009.8
20260509142524 8 172 11.3 20.9 0.10 0.38 0.28 94 1009.8
20260509142025 7 150 9.7 14.5 0.10 0.36 0.25 94 1009.8
20260509141542 7 152 9.7 16.1 0.10 0.36 0.25 94 1009.9
20260509141025 7 175 8.0 16.1 0.10 0.36 0.25 94 1009.9
20260509140523 7 166 8.0 12.9 0.10 0.33 0.23 94 1009.9
20260509140051 7 181 8.0 14.5 0.10 0.33 0.23 94 1009.9
20260509135522 7 157 8.0 14.5 0.08 0.30 0.20 93 1009.9
20260509135022 7 165 6.4 11.3 0.10 0.30 0.20 93 1009.9
20260509134543 7 159 6.4 12.9 0.10 0.30 0.20 93 1010.0
20260509134022 7 180 9.7 14.5 0.10 0.30 0.20 93 1010.0
20260509133524 7 176 9.7 14.5 0.10 0.28 0.18 93 1010.1
20260509133044 7 173 8.0 14.5 0.10 0.28 0.18 93 1010.1
20260509132522 7 178 8.0 12.9 0.13 0.28 0.18 93 1010.1
20260509132025 7 194 6.4 12.9 0.10 0.25 0.15 93 1010.1
20260509131541 7 189 6.4 11.3 0.10 0.25 0.15 93 1010.2
20260509131025 7 171 8.0 11.3 0.10 0.25 0.15 93 1010.1
20260509130525 7 190 6.4 11.3 0.10 0.23 0.13 93 1010.1
20260509130042 6 167 6.4 11.3 0.10 0.23 0.13 93 1010.2
20260509125524 6 194 4.8 9.7 0.10 0.23 0.13 92 1010.2
20260509125028 6 187 4.8 9.7 0.08 0.20 0.10 92 1010.2
20260509124542 6 176 3.2 8.0 0.10 0.20 0.10 92 1010.2
20260509124024 6 154 3.2 8.0 0.10 0.20 0.10 91 1010.2
20260509123524 6 158 3.2 8.0 0.08 0.18 0.08 91 1010.1
20260509123053 6 167 3.2 6.4 0.08 0.18 0.08 91 1010.2
20260509122525 6 167 3.2 6.4 0.05 0.15 0.05 91 1010.3
20260509122026 6 167 4.8 6.4 0.05 0.15 0.05 90 1010.4
20260509121541 6 167 3.2 8.0 0.05 0.15 0.05 90 1010.5
20260509121025 6 167 3.2 8.0 0.05 0.15 0.05 90 1010.5
20260509120529 6 166 3.2 8.0 0.03 0.13 0.03 90 1010.5
20260509120040 6 167 3.2 6.4 0.03 0.13 0.03 89 1010.5
20260509115526 6 167 4.8 6.4 0.03 0.13 0.03 89 1010.6
20260509115031 6 167 3.2 6.4 0.03 0.13 0.03 89 1010.7
20260509114545 6 167 3.2 6.4 0.00 0.10 0.00 89 1010.7
20260509114025 5 167 3.2 8.0 0.00 0.10 0.00 89 1010.6
20260509113523 5 167 3.2 8.0 0.00 0.10 0.00 89 1010.6
20260509113104 5 176 3.2 8.0 0.00 0.10 0.00 88 1010.6
20260509112524 5 185 3.2 8.0 0.00 0.10 0.00 88 1010.6
20260509112024 5 180 3.2 6.4 0.00 0.10 0.00 88 1010.6
20260509111548 5 180 3.2 4.8 0.00 0.10 0.00 88 1010.6
20260509111024 5 180 1.6 6.4 0.00 0.10 0.00 88 1010.4
20260509110522 5 180 3.2 8.0 0.00 0.10 0.00 88 1010.3
20260509110041 5 180 4.8 8.0 0.00 0.10 0.00 87 1010.3
20260509105522 5 172 4.8 11.3 0.00 0.10 0.00 87 1010.2
20260509105025 5 175 4.8 11.3 0.00 0.10 0.00 87 1010.2
20260509104538 5 183 6.4 11.3 0.00 0.10 0.00 87 1010.2
20260509104024 5 194 8.0 11.3 0.00 0.10 0.00 87 1010.2
20260509103526 5 194 6.4 11.3 0.00 0.10 0.00 88 1010.1
20260509103055 4 188 3.2 8.0 0.00 0.10 0.00 86 1010.1
20260509102522 4 161 3.2 8.0 0.00 0.10 0.00 85 1010.0
20260509102025 4 161 3.2 8.0 0.00 0.10 0.00 85 1009.9
20260509101546 4 170 3.2 8.0 0.00 0.10 0.00 85 1010.0
20260509101024 4 178 4.8 8.0 0.00 0.10 0.00 85 1010.0
20260509100524 4 169 4.8 11.3 0.00 0.10 0.00 85 1010.0
20260509100105 4 182 4.8 12.9 0.00 0.10 0.00 84 1010.0
20260509095522 3 190 6.4 12.9 0.00 0.10 0.00 84 1010.0
20260509095022 3 184 6.4 12.9 0.00 0.10 0.00 84 1010.0
20260509094547 3 182 6.4 11.3 0.00 0.10 0.00 83 1010.0
20260509094023 3 166 6.4 11.3 0.00 0.10 0.00 82 1010.0
20260509093522 3 169 4.8 9.7 0.00 0.10 0.00 82 1010.0
20260509093039 3 178 4.8 9.7 0.00 0.10 0.00 81 1010.1
20260509092523 3 186 4.8 9.7 0.00 0.10 0.00 81 1010.2
20260509092023 3 202 6.4 9.7 0.00 0.10 0.00 81 1010.3
20260509091554 3 188 4.8 8.0 0.00 0.10 0.00 80 1010.1
20260509091023 3 188 4.8 6.4 0.00 0.10 0.00 80 1010.1
20260509090525 3 188 3.2 6.4 0.00 0.10 0.00 79 1010.1
20260509090050 3 192 3.2 6.4 0.00 0.10 0.00 80 1010.4
20260509085524 3 221 1.6 4.8 0.00 0.13 0.00 80 1010.4
20260509085024 3 221 1.6 4.8 0.00 0.13 0.00 79 1010.4
20260509084545 3 221 1.6 3.2 0.00 0.13 0.00 80 1010.6
20260509084024 3 221 0.0 4.8 0.00 0.13 0.00 79 1010.4
20260509083521 3 221 1.6 4.8 0.00 0.13 0.00 80 1010.5